Starlink 5659

operational
NORAD ID: 55351 Int'l Des: 2023-013 Owner: SPXS Country: US Constellation: starlink
LEOCIRCULAR

关于 Starlink 5659

正在加载描述...

实时位置

正在加载3D地球...

即将过境

高度历史

Altitude vs Time

uPlot chart will show altitude changes over time

两行轨道根数

1 55351U 23013W 26033.60005585 -.00001595 00000-0 -10303-3 0 9993
2 55351 43.0032 130.7704 0000811 243.6543 116.4216 15.02547583166433
Epoch: Feb 2, 2026 • Age: 13 hours

当前状态

高度 560.0 km
速度 7.59 km/s
星下点 29.21°N, 19.39°W
发射日期 Jan 26, 2023
运行时间 3 years
类型 internet

技术详情

分类 Payload
质量 305.00 kg
干质量 290.00 kg
总质量 305.00 kg
长度 0.20 m
直径 2.80 m
跨度 9.00 m
形状 Box + pan
制造商 SPXS
平台类型 Starlink
阶段状态 In Orbit
所有者/国家 SPXS/US

大型星座

Loading constellations...